date,time,SUV Intensity [MED/Hr],UV Index,Daily total [MED],Since Last [MED]
18/04/2023,00:00:44,-0.000,0.0,0.0,0.0
18/04/2023,00:01:44,-0.000,0.0,0.0,0.0
18/04/2023,00:02:44,-0.000,0.0,0.0,0.0
18/04/2023,00:03:45,0.000,0.0,0.0,0.0
18/04/2023,00:04:44,-0.000,0.0,0.0,0.0
18/04/2023,00:05:44,-0.000,0.0,0.0,0.0
18/04/2023,00:06:44,0.000,0.0,0.0,0.0
18/04/2023,00:07:44,-0.000,0.0,0.0,0.0
18/04/2023,00:08:45,-0.000,0.0,0.0,0.0
18/04/2023,00:09:45,-0.000,0.0,0.0,0.0
18/04/2023,00:10:44,0.000,0.0,0.0,0.0
18/04/2023,00:11:44,0.000,0.0,0.0,0.0
18/04/2023,00:12:44,0.000,0.0,0.0,0.0
18/04/2023,00:13:44,0.000,0.0,0.0,0.0
18/04/2023,00:14:44,-0.000,0.0,0.0,0.0
18/04/2023,00:15:44,-0.000,0.0,0.0,0.0
18/04/2023,00:16:44,-0.001,0.0,0.0,0.0
18/04/2023,00:17:44,0.000,0.0,0.0,0.0
18/04/2023,00:18:44,-0.000,0.0,0.0,0.0
18/04/2023,00:19:44,-0.001,0.0,0.0,0.0
18/04/2023,00:20:44,-0.000,0.0,0.0,0.0
18/04/2023,00:21:44,-0.000,0.0,0.0,0.0
18/04/2023,00:22:44,0.001,0.0,0.0,0.0
18/04/2023,00:23:44,-0.000,0.0,0.0,0.0
18/04/2023,00:24:44,-0.000,0.0,0.0,0.0
18/04/2023,00:25:44,-0.000,0.0,0.0,0.0
18/04/2023,00:26:44,-0.001,0.0,0.0,0.0
18/04/2023,00:27:44,-0.000,0.0,0.0,0.0
18/04/2023,00:28:44,-0.000,0.0,0.0,0.0
18/04/2023,00:29:44,0.001,0.0,0.0,0.0
18/04/2023,00:30:44,-0.001,0.0,0.0,0.0
18/04/2023,00:31:44,0.001,0.0,0.0,0.0
18/04/2023,00:32:44,0.001,0.0,0.0,0.0
18/04/2023,00:33:44,-0.000,0.0,0.0,0.0
18/04/2023,00:34:45,-0.000,0.0,0.0,0.0
18/04/2023,00:35:44,0.000,0.0,0.0,0.0
18/04/2023,00:36:44,-0.000,0.0,0.0,0.0
18/04/2023,00:37:44,0.001,0.0,0.0,0.0
18/04/2023,00:38:44,-0.000,0.0,0.0,0.0
18/04/2023,00:39:44,-0.000,0.0,0.0,0.0
18/04/2023,00:40:44,-0.000,0.0,0.0,0.0
18/04/2023,00:41:44,-0.000,0.0,0.0,0.0
18/04/2023,00:42:44,0.000,0.0,0.0,0.0
18/04/2023,00:43:44,-0.000,0.0,0.0,0.0
18/04/2023,00:44:44,0.001,0.0,0.0,0.0
18/04/2023,00:45:44,-0.000,0.0,0.0,0.0
18/04/2023,00:46:44,-0.000,0.0,0.0,0.0
18/04/2023,00:47:44,-0.000,0.0,0.0,0.0
18/04/2023,00:48:45,-0.000,0.0,0.0,0.0
18/04/2023,00:49:44,-0.001,0.0,0.0,0.0
18/04/2023,00:50:44,-0.001,0.0,0.0,0.0
18/04/2023,00:51:44,-0.000,0.0,0.0,0.0
18/04/2023,00:52:45,0.000,0.0,0.0,0.0
18/04/2023,00:53:44,-0.001,0.0,0.0,0.0
18/04/2023,00:54:44,-0.000,0.0,0.0,0.0
18/04/2023,00:55:44,0.001,0.0,0.0,0.0
18/04/2023,00:56:44,-0.001,0.0,0.0,0.0
18/04/2023,00:57:44,-0.001,0.0,0.0,0.0
18/04/2023,00:58:44,-0.001,0.0,0.0,0.0
18/04/2023,00:59:44,0.000,0.0,0.0,0.0
18/04/2023,01:00:44,-0.000,0.0,0.0,0.0
18/04/2023,01:01:44,-0.000,0.0,0.0,0.0
18/04/2023,01:02:44,-0.001,0.0,0.0,0.0
18/04/2023,01:03:44,0.001,0.0,0.0,0.0
18/04/2023,01:04:44,0.000,0.0,0.0,0.0
18/04/2023,01:05:44,0.001,0.0,0.0,0.0
18/04/2023,01:06:44,0.000,0.0,0.0,0.0
18/04/2023,01:07:44,-0.000,0.0,0.0,0.0
18/04/2023,01:08:44,0.001,0.0,0.0,0.0
18/04/2023,01:09:44,-0.000,0.0,0.0,0.0
18/04/2023,01:10:44,0.000,0.0,0.0,0.0
18/04/2023,01:11:44,0.000,0.0,0.0,0.0
18/04/2023,01:12:44,-0.000,0.0,0.0,0.0
18/04/2023,01:13:44,-0.001,0.0,0.0,0.0
18/04/2023,01:14:44,-0.001,0.0,0.0,0.0
18/04/2023,01:15:44,0.001,0.0,0.0,0.0
18/04/2023,01:16:44,0.000,0.0,0.0,0.0
18/04/2023,01:17:44,-0.000,0.0,0.0,0.0
18/04/2023,01:18:44,-0.000,0.0,0.0,0.0
18/04/2023,01:19:44,-0.001,0.0,0.0,0.0
18/04/2023,01:20:44,-0.000,0.0,0.0,0.0
18/04/2023,01:21:44,-0.001,0.0,0.0,0.0
18/04/2023,01:22:44,-0.000,0.0,0.0,0.0
18/04/2023,01:23:44,0.000,0.0,0.0,0.0
18/04/2023,01:24:44,-0.000,0.0,0.0,0.0
18/04/2023,01:25:44,-0.000,0.0,0.0,0.0
18/04/2023,01:26:44,-0.001,0.0,0.0,0.0
18/04/2023,01:27:44,-0.000,0.0,0.0,0.0
18/04/2023,01:28:44,-0.000,0.0,0.0,0.0
18/04/2023,01:29:44,-0.001,0.0,0.0,0.0
18/04/2023,01:30:45,-0.001,0.0,0.0,0.0
18/04/2023,01:31:44,-0.001,0.0,0.0,0.0
18/04/2023,01:32:44,-0.000,0.0,0.0,0.0
18/04/2023,01:33:45,-0.001,0.0,0.0,0.0
18/04/2023,01:34:44,-0.000,0.0,0.0,0.0
18/04/2023,01:35:44,-0.002,0.0,0.0,0.0
18/04/2023,01:36:44,-0.000,0.0,0.0,0.0
18/04/2023,01:37:44,-0.001,0.0,0.0,0.0
18/04/2023,01:38:44,-0.001,0.0,0.0,0.0
18/04/2023,01:39:44,0.000,0.0,0.0,0.0
18/04/2023,01:40:44,-0.000,0.0,0.0,0.0
18/04/2023,01:41:44,-0.000,0.0,0.0,0.0
18/04/2023,01:42:44,-0.001,0.0,0.0,0.0
18/04/2023,01:43:44,-0.000,0.0,0.0,0.0
18/04/2023,01:44:44,-0.000,0.0,0.0,0.0
18/04/2023,01:45:44,0.000,0.0,0.0,0.0
18/04/2023,01:46:44,-0.001,0.0,0.0,0.0
18/04/2023,01:47:44,-0.000,0.0,0.0,0.0
18/04/2023,01:48:44,0.000,0.0,0.0,0.0
18/04/2023,01:49:44,-0.001,0.0,0.0,0.0
18/04/2023,01:50:44,-0.001,0.0,0.0,0.0
18/04/2023,01:51:44,-0.001,0.0,0.0,0.0
18/04/2023,01:52:44,-0.000,0.0,0.0,0.0
18/04/2023,01:53:45,0.000,0.0,0.0,0.0
18/04/2023,01:54:44,-0.001,0.0,0.0,0.0
18/04/2023,01:55:44,-0.001,0.0,0.0,0.0
18/04/2023,01:56:44,-0.001,0.0,0.0,0.0
18/04/2023,01:57:44,-0.000,0.0,0.0,0.0
18/04/2023,01:58:44,-0.000,0.0,0.0,0.0
18/04/2023,01:59:44,-0.001,0.0,0.0,0.0
18/04/2023,02:00:44,-0.001,0.0,0.0,0.0
18/04/2023,02:01:44,-0.000,0.0,0.0,0.0
18/04/2023,02:02:44,-0.001,0.0,0.0,0.0
18/04/2023,02:03:45,0.001,0.0,0.0,0.0
18/04/2023,02:04:44,0.000,0.0,0.0,0.0
18/04/2023,02:05:44,-0.001,0.0,0.0,0.0
18/04/2023,02:06:44,-0.000,0.0,0.0,0.0
18/04/2023,02:07:44,-0.001,0.0,0.0,0.0
18/04/2023,02:08:44,-0.001,0.0,0.0,0.0
18/04/2023,02:09:44,-0.001,0.0,0.0,0.0
18/04/2023,02:10:45,-0.000,0.0,0.0,0.0
18/04/2023,02:11:45,-0.000,0.0,0.0,0.0
18/04/2023,02:12:45,0.001,0.0,0.0,0.0
18/04/2023,02:13:44,-0.000,0.0,0.0,0.0
18/04/2023,02:14:44,-0.001,0.0,0.0,0.0
18/04/2023,02:15:44,-0.000,0.0,0.0,0.0
18/04/2023,02:16:44,-0.000,0.0,0.0,0.0
18/04/2023,02:17:44,-0.000,0.0,0.0,0.0
18/04/2023,02:18:49,-0.001,0.0,0.0,0.0
18/04/2023,02:19:45,-0.000,0.0,0.0,0.0
18/04/2023,02:20:44,-0.000,0.0,0.0,0.0
18/04/2023,02:21:45,-0.000,0.0,0.0,0.0
18/04/2023,02:22:44,0.001,0.0,0.0,0.0
18/04/2023,02:23:44,0.001,0.0,0.0,0.0
18/04/2023,02:24:44,0.000,0.0,0.0,0.0
18/04/2023,02:25:44,-0.000,0.0,0.0,0.0
18/04/2023,02:26:44,-0.000,0.0,0.0,0.0
18/04/2023,02:27:44,-0.001,0.0,0.0,0.0
18/04/2023,02:28:44,-0.001,0.0,0.0,0.0
18/04/2023,02:29:44,-0.001,0.0,0.0,0.0
18/04/2023,02:30:44,0.001,0.0,0.0,0.0
18/04/2023,02:31:44,-0.000,0.0,0.0,0.0
18/04/2023,02:32:44,-0.001,0.0,0.0,0.0
18/04/2023,02:33:44,-0.001,0.0,0.0,0.0
18/04/2023,02:34:45,0.000,0.0,0.0,0.0
18/04/2023,02:35:44,-0.000,0.0,0.0,0.0
18/04/2023,02:36:44,-0.000,0.0,0.0,0.0
18/04/2023,02:37:44,-0.000,0.0,0.0,0.0
18/04/2023,02:38:44,-0.001,0.0,0.0,0.0
18/04/2023,02:39:44,0.001,0.0,0.0,0.0
18/04/2023,02:40:44,0.001,0.0,0.0,0.0
18/04/2023,02:41:44,0.000,0.0,0.0,0.0
18/04/2023,02:42:44,-0.000,0.0,0.0,0.0
18/04/2023,02:43:44,-0.000,0.0,0.0,0.0
18/04/2023,02:44:44,-0.000,0.0,0.0,0.0
18/04/2023,02:45:45,-0.000,0.0,0.0,0.0
18/04/2023,02:46:44,-0.001,0.0,0.0,0.0
18/04/2023,02:47:44,-0.001,0.0,0.0,0.0
18/04/2023,02:48:45,-0.001,0.0,0.0,0.0
18/04/2023,02:49:45,-0.001,0.0,0.0,0.0
18/04/2023,02:50:44,-0.001,0.0,0.0,0.0
18/04/2023,02:51:45,0.000,0.0,0.0,0.0
18/04/2023,02:52:45,-0.000,0.0,0.0,0.0
18/04/2023,02:53:44,-0.000,0.0,0.0,0.0
18/04/2023,02:54:45,-0.001,0.0,0.0,0.0
18/04/2023,02:55:45,-0.001,0.0,0.0,0.0
18/04/2023,02:56:45,-0.000,0.0,0.0,0.0
18/04/2023,02:57:45,-0.000,0.0,0.0,0.0
18/04/2023,02:58:44,-0.000,0.0,0.0,0.0
18/04/2023,02:59:44,-0.000,0.0,0.0,0.0
18/04/2023,03:00:45,-0.000,0.0,0.0,0.0
18/04/2023,03:01:45,-0.001,0.0,0.0,0.0
18/04/2023,03:02:45,-0.000,0.0,0.0,0.0
18/04/2023,03:03:44,-0.000,0.0,0.0,0.0
18/04/2023,03:04:45,0.001,0.0,0.0,0.0
18/04/2023,03:05:45,-0.000,0.0,0.0,0.0
18/04/2023,03:06:45,-0.001,0.0,0.0,0.0
18/04/2023,03:07:45,-0.000,0.0,0.0,0.0
18/04/2023,03:08:44,-0.001,0.0,0.0,0.0
18/04/2023,03:09:44,-0.000,0.0,0.0,0.0
18/04/2023,03:10:44,-0.002,0.0,0.0,0.0
18/04/2023,03:11:44,-0.000,0.0,0.0,0.0
18/04/2023,03:12:45,-0.000,0.0,0.0,0.0
18/04/2023,03:13:45,0.000,0.0,0.0,0.0
18/04/2023,03:14:45,-0.000,0.0,0.0,0.0
18/04/2023,03:15:45,-0.001,0.0,0.0,0.0
18/04/2023,03:16:44,-0.001,0.0,0.0,0.0
18/04/2023,03:17:44,-0.000,0.0,0.0,0.0
18/04/2023,03:18:44,0.000,0.0,0.0,0.0
18/04/2023,03:19:44,-0.001,0.0,0.0,0.0
18/04/2023,03:20:44,-0.001,0.0,0.0,0.0
18/04/2023,03:21:45,-0.001,0.0,0.0,0.0
18/04/2023,03:22:44,-0.001,0.0,0.0,0.0
18/04/2023,03:23:44,-0.000,0.0,0.0,0.0
18/04/2023,03:24:44,-0.000,0.0,0.0,0.0
18/04/2023,03:25:44,-0.001,0.0,0.0,0.0
18/04/2023,03:26:44,0.001,0.0,0.0,0.0
18/04/2023,03:27:45,-0.000,0.0,0.0,0.0
18/04/2023,03:28:44,-0.002,0.0,0.0,0.0
18/04/2023,03:29:45,-0.000,0.0,0.0,0.0
18/04/2023,03:30:44,-0.000,0.0,0.0,0.0
18/04/2023,03:31:44,-0.000,0.0,0.0,0.0
18/04/2023,03:32:45,-0.000,0.0,0.0,0.0
18/04/2023,03:33:44,-0.000,0.0,0.0,0.0
18/04/2023,03:34:45,-0.000,0.0,0.0,0.0
18/04/2023,03:35:44,-0.000,0.0,0.0,0.0
18/04/2023,03:36:44,0.001,0.0,0.0,0.0
18/04/2023,03:37:44,-0.000,0.0,0.0,0.0
18/04/2023,03:38:45,0.000,0.0,0.0,0.0
18/04/2023,03:39:45,-0.000,0.0,0.0,0.0
18/04/2023,03:40:44,-0.001,0.0,0.0,0.0
18/04/2023,03:41:44,-0.000,0.0,0.0,0.0
18/04/2023,03:42:45,-0.001,0.0,0.0,0.0
18/04/2023,03:43:45,0.000,0.0,0.0,0.0
18/04/2023,03:44:44,-0.001,0.0,0.0,0.0
18/04/2023,03:45:44,-0.001,0.0,0.0,0.0
18/04/2023,03:46:44,-0.001,0.0,0.0,0.0
18/04/2023,03:47:44,-0.001,0.0,0.0,0.0
18/04/2023,03:48:44,-0.001,0.0,0.0,0.0
18/04/2023,03:49:46,-0.000,0.0,0.0,0.0
18/04/2023,03:50:45,-0.000,0.0,0.0,0.0
18/04/2023,03:51:44,-0.001,0.0,0.0,0.0
18/04/2023,03:52:44,-0.001,0.0,0.0,0.0
18/04/2023,03:53:45,-0.000,0.0,0.0,0.0
18/04/2023,03:54:44,-0.000,0.0,0.0,0.0
18/04/2023,03:55:45,-0.001,0.0,0.0,0.0
18/04/2023,03:56:45,-0.000,0.0,0.0,0.0
18/04/2023,03:57:45,-0.000,0.0,0.0,0.0
18/04/2023,03:58:44,-0.001,0.0,0.0,0.0
18/04/2023,03:59:45,-0.000,0.0,0.0,0.0
18/04/2023,04:00:44,-0.000,0.0,0.0,0.0
18/04/2023,04:02:07,-0.000,0.0,0.0,0.0
18/04/2023,04:03:45,-0.000,0.0,0.0,0.0
18/04/2023,04:04:45,-0.000,0.0,0.0,0.0
18/04/2023,04:05:44,-0.001,0.0,0.0,0.0
18/04/2023,04:06:44,-0.001,0.0,0.0,0.0
18/04/2023,04:07:45,-0.001,0.0,0.0,0.0
18/04/2023,04:08:45,-0.001,0.0,0.0,0.0
18/04/2023,04:09:45,-0.001,0.0,0.0,0.0
18/04/2023,04:10:45,-0.001,0.0,0.0,0.0
18/04/2023,04:11:45,0.000,0.0,0.0,0.0
18/04/2023,04:12:45,-0.001,0.0,0.0,0.0
18/04/2023,04:13:45,-0.002,0.0,0.0,0.0
18/04/2023,04:14:44,-0.001,0.0,0.0,0.0
18/04/2023,04:15:45,-0.001,0.0,0.0,0.0
18/04/2023,04:16:44,-0.001,0.0,0.0,0.0
18/04/2023,04:17:44,-0.001,0.0,0.0,0.0
18/04/2023,04:18:45,-0.001,0.0,0.0,0.0
18/04/2023,04:19:44,-0.002,0.0,0.0,0.0
18/04/2023,04:20:45,-0.001,0.0,0.0,0.0
18/04/2023,04:21:44,-0.000,0.0,0.0,0.0
18/04/2023,04:22:45,-0.001,0.0,0.0,0.0
18/04/2023,04:23:45,-0.000,0.0,0.0,0.0
18/04/2023,04:24:45,-0.001,0.0,0.0,0.0
18/04/2023,04:25:45,-0.000,0.0,0.0,0.0
18/04/2023,04:26:44,-0.001,0.0,0.0,0.0
18/04/2023,04:27:45,-0.000,0.0,0.0,0.0
18/04/2023,04:28:45,-0.001,0.0,0.0,0.0
18/04/2023,04:29:44,0.001,0.0,0.0,0.0
18/04/2023,04:30:44,-0.001,0.0,0.0,0.0
18/04/2023,04:31:44,-0.001,0.0,0.0,0.0
18/04/2023,04:32:44,-0.000,0.0,0.0,0.0
18/04/2023,04:33:44,-0.000,0.0,0.0,0.0
18/04/2023,04:34:45,-0.000,0.0,0.0,0.0
18/04/2023,04:35:45,-0.000,0.0,0.0,0.0
18/04/2023,04:36:44,-0.000,0.0,0.0,0.0
18/04/2023,04:37:45,0.000,0.0,0.0,0.0
18/04/2023,04:38:44,-0.000,0.0,0.0,0.0
18/04/2023,04:39:43,-0.000,0.0,0.0,0.0
18/04/2023,04:41:07,0.000,0.0,0.0,0.0
18/04/2023,04:42:45,-0.000,0.0,0.0,0.0
18/04/2023,04:43:44,-0.000,0.0,0.0,0.0
18/04/2023,04:44:45,-0.000,0.0,0.0,0.0
18/04/2023,04:45:45,-0.000,0.0,0.0,0.0
18/04/2023,04:46:44,-0.000,0.0,0.0,0.0
18/04/2023,04:47:44,0.001,0.0,0.0,0.0
18/04/2023,04:48:44,-0.000,0.0,0.0,0.0
18/04/2023,04:49:44,-0.001,0.0,0.0,0.0
18/04/2023,04:50:44,-0.001,0.0,0.0,0.0
18/04/2023,04:51:45,0.000,0.0,0.0,0.0
18/04/2023,04:52:45,-0.000,0.0,0.0,0.0
18/04/2023,04:53:45,-0.001,0.0,0.0,0.0
18/04/2023,04:54:44,-0.000,0.0,0.0,0.0
18/04/2023,04:55:44,0.000,0.0,0.0,0.0
18/04/2023,04:56:44,0.000,0.0,0.0,0.0
18/04/2023,04:57:44,0.000,0.0,0.0,0.0
18/04/2023,04:58:44,0.000,0.0,0.0,0.0
18/04/2023,04:59:45,0.001,0.0,0.0,0.0
18/04/2023,05:00:44,0.000,0.0,0.0,0.0
18/04/2023,05:01:44,0.000,0.0,0.0,0.0
18/04/2023,05:02:44,0.000,0.0,0.0,0.0
18/04/2023,05:03:44,0.000,0.0,0.0,0.0
18/04/2023,05:04:45,0.001,0.0,0.0,0.0
18/04/2023,05:05:44,0.000,0.0,0.0,0.0
18/04/2023,05:06:44,0.000,0.0,0.0,0.0
18/04/2023,05:07:45,0.000,0.0,0.0,0.0
18/04/2023,05:08:45,0.000,0.0,0.0,0.0
18/04/2023,05:09:44,0.000,0.0,0.0,0.0
18/04/2023,05:10:45,0.001,0.0,0.0,0.0
18/04/2023,05:11:45,0.000,0.0,0.0,0.0
18/04/2023,05:12:45,0.000,0.0,0.0,0.0
18/04/2023,05:13:44,0.000,0.0,0.0,0.0
18/04/2023,05:14:45,0.000,0.0,0.0,0.0
18/04/2023,05:15:45,0.000,0.0,0.0,0.0
18/04/2023,05:16:45,0.001,0.0,0.0,0.0
18/04/2023,05:17:44,0.001,0.0,0.0,0.0
18/04/2023,05:18:45,0.001,0.0,0.0,0.0
18/04/2023,05:19:45,0.001,0.0,0.0,0.0
18/04/2023,05:20:44,0.001,0.0,0.0,0.0
18/04/2023,05:21:44,0.002,0.0,0.0,0.0
18/04/2023,05:22:45,0.002,0.0,0.0,0.0
18/04/2023,05:23:44,0.003,0.0,0.0,0.0
18/04/2023,05:24:45,0.002,0.0,0.0,0.0
18/04/2023,05:25:44,0.003,0.0,0.0,0.0
18/04/2023,05:26:45,0.002,0.0,0.0,0.0
18/04/2023,05:27:45,0.003,0.0,0.0,0.0
18/04/2023,05:28:45,0.003,0.0,0.0,0.0
18/04/2023,05:29:44,0.003,0.0,0.0,0.0
18/04/2023,05:30:44,0.005,0.0,0.0,0.0
18/04/2023,05:31:44,0.004,0.0,0.0,0.0
18/04/2023,05:32:45,0.004,0.0,0.0,0.0
18/04/2023,05:33:44,0.005,0.0,0.0,0.0
18/04/2023,05:34:45,0.004,0.0,0.0,0.0
18/04/2023,05:35:45,0.004,0.0,0.0,0.0
18/04/2023,05:36:45,0.005,0.0,0.0,0.0
18/04/2023,05:37:44,0.005,0.0,0.0,0.0
18/04/2023,05:38:45,0.004,0.0,0.0,0.0
18/04/2023,05:39:45,0.004,0.0,0.0,0.0
18/04/2023,05:40:45,0.005,0.0,0.0,0.0
18/04/2023,05:41:45,0.006,0.0,0.0,0.0
18/04/2023,05:42:45,0.005,0.0,0.0,0.0
18/04/2023,05:43:45,0.006,0.0,0.0,0.0
18/04/2023,05:44:44,0.008,0.0,0.0,0.0
18/04/2023,05:45:45,0.008,0.0,0.0,0.0
18/04/2023,05:46:45,0.010,0.0,0.0,0.0
18/04/2023,05:47:44,0.011,0.0,0.001,0.001
18/04/2023,05:48:44,0.011,0.0,0.001,0.0
18/04/2023,05:49:44,0.012,0.0,0.001,0.0
18/04/2023,05:50:44,0.014,0.0,0.001,0.0
18/04/2023,05:51:44,0.015,0.0,0.001,0.0
18/04/2023,05:52:45,0.015,0.0,0.002,0.001
18/04/2023,05:53:45,0.016,0.0,0.002,0.0
18/04/2023,05:54:44,0.016,0.0,0.002,0.0
18/04/2023,05:55:44,0.017,0.0,0.002,0.0
18/04/2023,05:56:45,0.017,0.0,0.003,0.001
18/04/2023,05:57:44,0.014,0.0,0.003,0.0
18/04/2023,05:58:45,0.016,0.0,0.003,0.0
18/04/2023,05:59:45,0.018,0.0,0.004,0.001
18/04/2023,06:00:45,0.016,0.0,0.004,0.0
18/04/2023,06:01:45,0.017,0.0,0.004,0.0
18/04/2023,06:02:44,0.020,0.0,0.004,0.0
18/04/2023,06:03:45,0.019,0.0,0.005,0.001
18/04/2023,06:04:45,0.019,0.0,0.005,0.0
18/04/2023,06:05:44,0.018,0.0,0.005,0.0
18/04/2023,06:06:44,0.015,0.0,0.006,0.001
18/04/2023,06:07:44,0.015,0.0,0.006,0.0
18/04/2023,06:08:45,0.015,0.0,0.006,0.0
18/04/2023,06:09:44,0.015,0.0,0.006,0.0
18/04/2023,06:10:45,0.015,0.0,0.007,0.001
18/04/2023,06:11:45,0.015,0.0,0.007,0.0
18/04/2023,06:12:44,0.015,0.0,0.007,0.0
18/04/2023,06:13:44,0.015,0.0,0.007,0.0
18/04/2023,06:14:44,0.016,0.0,0.008,0.001
18/04/2023,06:15:45,0.015,0.0,0.008,0.0
18/04/2023,06:16:45,0.017,0.0,0.008,0.0
18/04/2023,06:17:45,0.017,0.0,0.008,0.0
18/04/2023,06:18:45,0.017,0.0,0.009,0.001
18/04/2023,06:19:45,0.018,0.0,0.009,0.0
18/04/2023,06:20:44,0.026,0.0,0.009,0.0
18/04/2023,06:21:45,0.034,0.0,0.01,0.001
18/04/2023,06:22:45,0.034,0.0,0.01,0.0
18/04/2023,06:23:45,0.031,0.0,0.011,0.001
18/04/2023,06:24:45,0.027,0.0,0.011,0.0
18/04/2023,06:25:45,0.026,0.0,0.012,0.001
18/04/2023,06:26:44,0.028,0.0,0.012,0.0
18/04/2023,06:27:45,0.029,0.0,0.013,0.001
18/04/2023,06:28:45,0.029,0.0,0.013,0.0
18/04/2023,06:29:44,0.029,0.0,0.014,0.001
18/04/2023,06:30:45,0.030,0.0,0.014,0.0
18/04/2023,06:31:45,0.033,0.0,0.015,0.001
18/04/2023,06:32:45,0.037,0.0,0.015,0.0
18/04/2023,06:33:44,0.040,0.0,0.016,0.001
18/04/2023,06:34:45,0.039,0.0,0.017,0.001
18/04/2023,06:35:45,0.035,0.0,0.017,0.0
18/04/2023,06:36:44,0.041,0.0,0.018,0.001
18/04/2023,06:37:45,0.051,0.0,0.019,0.001
18/04/2023,06:38:44,0.054,0.0,0.019,0.0
18/04/2023,06:39:45,0.055,0.0,0.02,0.001
18/04/2023,06:40:45,0.055,0.0,0.021,0.001
18/04/2023,06:41:45,0.060,0.0,0.022,0.001
18/04/2023,06:42:44,0.062,0.0,0.023,0.001
18/04/2023,06:43:44,0.066,0.0,0.024,0.001
18/04/2023,06:44:44,0.071,0.0,0.026,0.002
18/04/2023,06:45:45,0.076,0.0,0.027,0.001
18/04/2023,06:46:45,0.077,0.0,0.028,0.001
18/04/2023,06:47:45,0.077,0.0,0.029,0.001
18/04/2023,06:48:45,0.072,0.0,0.031,0.002
18/04/2023,06:49:45,0.074,0.0,0.032,0.001
18/04/2023,06:50:45,0.072,0.0,0.033,0.001
18/04/2023,06:51:44,0.078,0.0,0.034,0.001
18/04/2023,06:52:45,0.079,0.0,0.036,0.002
18/04/2023,06:53:45,0.077,0.0,0.037,0.001
18/04/2023,06:54:45,0.074,0.0,0.038,0.001
18/04/2023,06:55:45,0.072,0.0,0.039,0.001
18/04/2023,06:56:45,0.070,0.0,0.041,0.002
18/04/2023,06:57:45,0.065,0.0,0.042,0.001
18/04/2023,06:58:45,0.069,0.0,0.043,0.001
18/04/2023,06:59:45,0.074,0.0,0.044,0.001
18/04/2023,07:00:45,0.074,0.0,0.045,0.001
18/04/2023,07:01:45,0.080,0.0,0.046,0.001
18/04/2023,07:02:44,0.077,0.0,0.048,0.002
18/04/2023,07:03:45,0.073,0.0,0.049,0.001
18/04/2023,07:04:45,0.075,0.0,0.05,0.001
18/04/2023,07:05:44,0.082,0.0,0.052,0.002
18/04/2023,07:06:44,0.088,0.0,0.053,0.001
18/04/2023,07:07:45,0.091,0.0,0.054,0.001
18/04/2023,07:08:45,0.097,0.0,0.056,0.002
18/04/2023,07:09:45,0.094,0.0,0.058,0.002
18/04/2023,07:10:45,0.083,0.0,0.059,0.001
18/04/2023,07:11:45,0.085,0.0,0.06,0.001
18/04/2023,07:12:45,0.094,0.0,0.062,0.002
18/04/2023,07:13:45,0.086,0.0,0.063,0.001
18/04/2023,07:14:44,0.086,0.0,0.065,0.002
18/04/2023,07:15:44,0.089,0.0,0.066,0.001
18/04/2023,07:16:44,0.099,0.0,0.068,0.002
18/04/2023,07:17:45,0.098,0.0,0.07,0.002
18/04/2023,07:18:45,0.104,0.0,0.071,0.001
18/04/2023,07:19:45,0.112,0.0,0.073,0.002
18/04/2023,07:20:45,0.120,0.0,0.075,0.002
18/04/2023,07:21:45,0.130,0.0,0.077,0.002
18/04/2023,07:22:45,0.139,0.0,0.079,0.002
18/04/2023,07:23:45,0.141,0.0,0.082,0.003
18/04/2023,07:24:45,0.138,0.0,0.084,0.002
18/04/2023,07:25:45,0.139,0.0,0.086,0.002
18/04/2023,07:26:45,0.149,0.0,0.089,0.003
18/04/2023,07:27:44,0.153,0.0,0.091,0.002
18/04/2023,07:28:45,0.153,0.0,0.094,0.003
18/04/2023,07:29:46,0.165,0.0,0.096,0.002
18/04/2023,07:30:46,0.179,0.0,0.099,0.003
18/04/2023,07:31:45,0.182,0.0,0.102,0.003
18/04/2023,07:32:45,0.197,0.0,0.106,0.004
18/04/2023,07:33:45,0.195,0.0,0.109,0.003
18/04/2023,07:34:45,0.210,0.0,0.112,0.003
18/04/2023,07:35:44,0.219,1.0,0.116,0.004
18/04/2023,07:36:45,0.222,1.0,0.119,0.003
18/04/2023,07:37:45,0.227,1.0,0.123,0.004
18/04/2023,07:38:44,0.229,1.0,0.127,0.004
18/04/2023,07:39:45,0.231,1.0,0.131,0.004
18/04/2023,07:40:44,0.227,1.0,0.134,0.003
18/04/2023,07:41:45,0.197,0.0,0.138,0.004
18/04/2023,07:42:45,0.213,0.0,0.141,0.003
18/04/2023,07:43:45,0.210,0.0,0.145,0.004
18/04/2023,07:44:45,0.207,0.0,0.148,0.003
18/04/2023,07:45:45,0.214,0.0,0.152,0.004
18/04/2023,07:46:45,0.213,0.0,0.155,0.003
18/04/2023,07:47:45,0.237,1.0,0.159,0.004
18/04/2023,07:48:45,0.256,1.0,0.163,0.004
18/04/2023,07:49:45,0.242,1.0,0.168,0.005
18/04/2023,07:50:45,0.248,1.0,0.171,0.003
18/04/2023,07:51:45,0.263,1.0,0.176,0.005
18/04/2023,07:52:44,0.269,1.0,0.18,0.004
18/04/2023,07:53:45,0.269,1.0,0.184,0.004
18/04/2023,07:54:45,0.270,1.0,0.189,0.005
18/04/2023,07:55:45,0.293,1.0,0.194,0.005
18/04/2023,07:56:45,0.295,1.0,0.199,0.005
18/04/2023,07:57:45,0.307,1.0,0.203,0.004
18/04/2023,07:58:45,0.312,1.0,0.209,0.006
18/04/2023,07:59:45,0.315,1.0,0.214,0.005
18/04/2023,08:00:45,0.321,1.0,0.219,0.005
18/04/2023,08:01:45,0.321,1.0,0.224,0.005
18/04/2023,08:02:45,0.323,1.0,0.23,0.006
18/04/2023,08:03:45,0.324,1.0,0.235,0.005
18/04/2023,08:04:45,0.331,1.0,0.241,0.006
18/04/2023,08:05:45,0.337,1.0,0.246,0.005
18/04/2023,08:06:45,0.343,1.0,0.252,0.006
18/04/2023,08:07:45,0.330,1.0,0.258,0.006
18/04/2023,08:08:45,0.312,1.0,0.263,0.005
18/04/2023,08:09:45,0.330,1.0,0.269,0.006
18/04/2023,08:10:45,0.345,1.0,0.275,0.006
18/04/2023,08:11:45,0.366,1.0,0.281,0.006
18/04/2023,08:12:44,0.373,1.0,0.287,0.006
18/04/2023,08:13:45,0.379,1.0,0.293,0.006
18/04/2023,08:14:45,0.356,1.0,0.299,0.006
18/04/2023,08:15:45,0.359,1.0,0.305,0.006
18/04/2023,08:16:45,0.393,1.0,0.312,0.007
18/04/2023,08:17:45,0.399,1.0,0.318,0.006
18/04/2023,08:18:45,0.402,1.0,0.325,0.007
18/04/2023,08:19:44,0.414,1.0,0.332,0.007
18/04/2023,08:20:45,0.419,1.0,0.339,0.007
18/04/2023,08:21:45,0.424,1.0,0.346,0.007
18/04/2023,08:22:45,0.428,1.0,0.353,0.007
18/04/2023,08:23:45,0.430,1.0,0.36,0.007
18/04/2023,08:24:45,0.440,1.0,0.367,0.007
18/04/2023,08:25:47,0.445,1.0,0.375,0.008
18/04/2023,08:26:45,0.446,1.0,0.382,0.007
18/04/2023,08:27:45,0.462,1.0,0.389,0.007
18/04/2023,08:28:45,0.466,1.0,0.396,0.007
18/04/2023,08:29:45,0.469,1.0,0.404,0.008
18/04/2023,08:30:46,0.477,1.0,0.412,0.008
18/04/2023,08:31:46,0.488,1.0,0.42,0.008
18/04/2023,08:32:44,0.480,1.0,0.428,0.008
18/04/2023,08:33:44,0.489,1.0,0.436,0.008
18/04/2023,08:34:45,0.419,1.0,0.444,0.008
18/04/2023,08:35:45,0.500,1.0,0.452,0.008
18/04/2023,08:36:46,0.501,1.0,0.461,0.009
18/04/2023,08:37:45,0.524,1.0,0.469,0.008
18/04/2023,08:38:45,0.523,1.0,0.477,0.008
18/04/2023,08:39:45,0.506,1.0,0.486,0.009
18/04/2023,08:40:45,0.525,1.0,0.495,0.009
18/04/2023,08:41:45,0.407,1.0,0.503,0.008
18/04/2023,08:42:45,0.509,1.0,0.511,0.008
18/04/2023,08:43:44,0.391,1.0,0.519,0.008
18/04/2023,08:44:45,0.485,1.0,0.525,0.006
18/04/2023,08:45:45,0.517,1.0,0.533,0.008
18/04/2023,08:46:45,0.526,1.0,0.541,0.008
18/04/2023,08:47:45,0.440,1.0,0.549,0.008
18/04/2023,08:48:45,0.552,1.0,0.557,0.008
18/04/2023,08:49:45,0.478,1.0,0.565,0.008
18/04/2023,08:50:45,0.569,1.0,0.575,0.01
18/04/2023,08:51:45,0.597,1.0,0.584,0.009
18/04/2023,08:52:45,0.583,1.0,0.594,0.01
18/04/2023,08:53:45,0.615,1.0,0.604,0.01
18/04/2023,08:54:45,0.496,1.0,0.614,0.01
18/04/2023,08:55:45,0.603,1.0,0.621,0.007
18/04/2023,08:56:45,0.603,1.0,0.632,0.011
18/04/2023,08:57:45,0.511,1.0,0.641,0.009
18/04/2023,08:58:45,0.579,1.0,0.65,0.009
18/04/2023,08:59:45,0.635,1.0,0.66,0.01
18/04/2023,09:00:45,0.651,1.0,0.671,0.011
18/04/2023,09:01:45,0.593,1.0,0.681,0.01
18/04/2023,09:02:45,0.558,1.0,0.691,0.01
18/04/2023,09:03:46,0.422,1.0,0.699,0.008
18/04/2023,09:04:45,0.492,1.0,0.706,0.007
18/04/2023,09:05:45,0.449,1.0,0.714,0.008
18/04/2023,09:06:45,0.645,1.0,0.723,0.009
18/04/2023,09:07:45,0.658,2.0,0.734,0.011
18/04/2023,09:08:45,0.493,1.0,0.743,0.009
18/04/2023,09:09:45,0.670,2.0,0.753,0.01
18/04/2023,09:10:45,0.450,1.0,0.761,0.008
18/04/2023,09:11:45,0.575,1.0,0.769,0.008
18/04/2023,09:12:45,0.479,1.0,0.778,0.009
18/04/2023,09:13:45,0.712,2.0,0.788,0.01
18/04/2023,09:14:45,0.566,1.0,0.8,0.012
18/04/2023,09:15:45,0.562,1.0,0.809,0.009
18/04/2023,09:16:45,0.566,1.0,0.819,0.01
18/04/2023,09:17:45,0.742,2.0,0.83,0.011
18/04/2023,09:18:45,0.728,2.0,0.842,0.012
18/04/2023,09:19:45,0.736,2.0,0.854,0.012
18/04/2023,09:20:45,0.720,2.0,0.865,0.011
18/04/2023,09:21:45,0.625,1.0,0.877,0.012
18/04/2023,09:22:45,0.568,1.0,0.886,0.009
18/04/2023,09:23:45,0.649,1.0,0.898,0.012
18/04/2023,09:24:45,0.545,1.0,0.907,0.009
18/04/2023,09:25:45,0.537,1.0,0.916,0.009
18/04/2023,09:26:45,0.565,1.0,0.928,0.012
18/04/2023,09:27:45,0.620,2.0,0.938,0.01
18/04/2023,09:28:45,0.611,1.0,0.949,0.011
18/04/2023,09:29:45,0.810,2.0,0.962,0.013
18/04/2023,09:30:45,0.832,2.0,0.976,0.014
18/04/2023,09:31:45,0.834,2.0,0.99,0.014
18/04/2023,09:32:45,0.845,2.0,1.004,0.014
18/04/2023,09:33:45,0.862,2.0,1.018,0.014
18/04/2023,09:34:45,0.842,2.0,1.032,0.014
18/04/2023,09:35:45,0.877,2.0,1.047,0.015
18/04/2023,09:36:45,0.871,2.0,1.061,0.014
18/04/2023,09:37:45,0.869,2.0,1.075,0.014
18/04/2023,09:38:45,0.872,2.0,1.089,0.014
18/04/2023,09:39:45,0.881,2.0,1.103,0.014
18/04/2023,09:40:45,0.739,2.0,1.117,0.014
18/04/2023,09:41:45,0.865,2.0,1.129,0.012
18/04/2023,09:42:45,0.588,1.0,1.141,0.012
18/04/2023,09:43:45,0.850,2.0,1.152,0.011
18/04/2023,09:44:45,0.578,1.0,1.165,0.013
18/04/2023,09:45:45,0.541,1.0,1.174,0.009
18/04/2023,09:46:45,0.870,2.0,1.186,0.012
18/04/2023,09:47:45,0.884,2.0,1.199,0.013
18/04/2023,09:48:45,0.900,2.0,1.213,0.014
18/04/2023,09:49:45,0.904,2.0,1.225,0.012
18/04/2023,09:50:45,0.910,2.0,1.24,0.015
18/04/2023,09:51:45,0.853,2.0,1.255,0.015
18/04/2023,09:52:45,0.601,1.0,1.266,0.011
18/04/2023,09:53:45,0.629,1.0,1.276,0.01
18/04/2023,09:54:45,0.578,1.0,1.286,0.01
18/04/2023,09:55:45,0.607,1.0,1.296,0.01
18/04/2023,09:56:45,0.874,2.0,1.308,0.012
18/04/2023,09:57:45,0.941,2.0,1.324,0.016
18/04/2023,09:58:45,0.956,2.0,1.339,0.015
18/04/2023,09:59:45,0.973,2.0,1.355,0.016
18/04/2023,10:00:45,0.988,2.0,1.372,0.017